Regional Weather Roundup
Issued by NWS

Home | Current Version | Previous Version | Graphics & Text | Print | Product List | Glossary Off
Versions: 1 2 3 4 5 6 7 8 9 10 11 12 13 14 15 16 17 18 19 20 21 22 23 24 25 26 27 28 29 30 31 32 33 34 35 36 37 38 39 40 41 42 43 44 45 46 47 48 49 50

000
ASUS43 KTOP 230808
RWRKS

WEATHER ROUNDUP FOR KANSAS
NATIONAL WEATHER SERVICE GOODLAND KS
300 AM CDT TUE SEP 23 2014

NOTE:  "FAIR" INDICATES FEW OR NO CLOUDS BELOW 12,000 FEET WITH NO
SIGNIFICANT WEATHER AND/OR OBSTRUCTIONS TO VISIBILITY.

KSZ001>006-013>018-027>032-041>047-230900-
NORTHWEST KANSAS

CITY           SKY/WX    TMP DP  RH WIND       PRES   REMARKS
GOODLAND       MOCLDY    58  56  93 S14       30.08F
HILL CITY      LGT RAIN  58  56  93 SE9       30.14F
RUSSELL        LGT RAIN  62  50  64 S14G24    30.10F
$$

KSZ061>065-074>080-084>089-230900-
SOUTHWEST KANSAS

CITY           SKY/WX    TMP DP  RH WIND       PRES   REMARKS
DODGE CITY     MOCLDY    63  44  50 S16G24    30.13F
ELKHART          N/A     65  58  78 S10         N/A
GARDEN CITY    CLEAR     62  48  60 S13       30.10F
GREAT BEND     CLOUDY    64  46  52 S16       30.13F
LIBERAL        MOCLDY    66  52  59 S13       30.16S
PRATT          CLOUDY    61  46  59 S15G23    30.16F
$$

KSZ066>073-081>083-090>101-230900-
SOUTHEAST KANSAS

CITY           SKY/WX    TMP DP  RH WIND       PRES   REMARKS
CHANUTE        CLEAR     55  53  93 SE7       30.21F
COFFEYVILLE    PTCLDY    54  52  93 CALM      30.21S
HUTCHINSON     MOCLDY    61  50  67 SE10      30.17S
MEDICINE LODGE   N/A     63  47  55 SE6       30.17S
NEWTON         MOCLDY    57  46  67 SE9       30.19F
PARSONS        PTCLDY    53  53 100 CALM      30.22S
WICHITA INTL   MOCLDY    61  51  70 S12       30.17F
WICHITA JABRA  PTCLDY    58  51  78 S8        30.17F
WICHITA MCCONL PTCLDY    60  52  75 SE12      30.18S
WINFIELD       PTCLDY    59  52  77 SE7       30.19F
$$

KSZ007>012-019>026-033>040-048>060-102>105-230900-
NORTHEAST KANSAS

CITY           SKY/WX    TMP DP  RH WIND       PRES   REMARKS
CONCORDIA      CLOUDY    61  52  72 SE9       30.14F
EMPORIA        PTCLDY    56  53  90 SE7       30.19F
LAWRENCE       PTCLDY    50  48  93 CALM      30.21F
MANHATTAN      MOCLDY    61  53  75 VRB3      30.17F
MARYSVILLE     CLOUDY    55  52  88 SE6       30.16F
OLATHE IND     PTCLDY    55  51  86 SE5       30.22F
OLATHE EXE     PTCLDY    56  52  86 SE3       30.21F
SALINA         CLOUDY    64  51  62 S9        30.15S
TOPEKA BILLARD MOCLDY    58  53  84 E5        30.20F
TOPEKA FORBES  MOCLDY    55  51  86 SE5       30.20F
$$



USA.gov is the U.S. government's official web portal to all federal, state and local government web resources and services.